TimeEDT,TemperatureF,Dew PointF,Humidity,Sea Level PressureIn,VisibilityMPH,Wind Direction,Wind SpeedMPH,Gust SpeedMPH,PrecipitationIn,Events,Conditions,WindDirDegrees,DateUTC
12:15 AM,65.5,65.3,99,30.26,7.0,North,-9999.0,-,N/A,,Clear,0,2013-06-23 04:15:00
12:35 AM,65.3,65.3,100,30.26,7.0,North,-9999.0,-,N/A,,Clear,0,2013-06-23 04:35:00
12:55 AM,64.8,64.8,100,30.25,7.0,North,-9999.0,-,N/A,,Clear,0,2013-06-23 04:55:00
1:15 AM,64.6,64.6,100,30.25,7.0,North,-9999.0,-,N/A,,Clear,0,2013-06-23 05:15:00
1:35 AM,64.4,64.4,100,30.25,7.0,North,-9999.0,-,N/A,,Clear,0,2013-06-23 05:35:00
1:55 AM,64.4,64.4,100,30.24,7.0,North,-9999.0,-,N/A,,Clear,0,2013-06-23 05:55:00
2:15 AM,63.9,63.9,100,30.24,7.0,North,-9999.0,-,N/A,,Clear,0,2013-06-23 06:15:00
2:35 AM,63.5,63.5,100,30.24,7.0,North,-9999.0,-,N/A,,Clear,0,2013-06-23 06:35:00
2:55 AM,63.1,63.1,100,30.23,5.0,North,-9999.0,-,N/A,,Clear,0,2013-06-23 06:55:00
3:15 AM,62.8,62.8,100,30.23,7.0,North,-9999.0,-,N/A,,Clear,0,2013-06-23 07:15:00
3:35 AM,62.8,62.8,100,30.23,5.0,North,-9999.0,-,N/A,,Clear,0,2013-06-23 07:35:00
3:55 AM,62.8,62.8,100,30.23,7.0,North,-9999.0,-,N/A,,Clear,0,2013-06-23 07:55:00
4:15 AM,62.8,62.8,100,30.23,7.0,North,-9999.0,-,N/A,,Clear,0,2013-06-23 08:15:00
4:35 AM,62.8,62.8,100,30.23,7.0,North,-9999.0,-,N/A,,Clear,0,2013-06-23 08:35:00
4:55 AM,62.4,62.4,100,30.24,5.0,North,-9999.0,-,N/A,,Clear,0,2013-06-23 08:55:00
5:15 AM,62.4,62.4,100,30.24,7.0,North,-9999.0,-,N/A,,Clear,0,2013-06-23 09:15:00
5:35 AM,62.1,62.1,100,30.25,5.0,North,-9999.0,-,N/A,,Clear,0,2013-06-23 09:35:00
5:55 AM,61.7,61.7,100,30.25,7.0,North,-9999.0,-,N/A,,Clear,0,2013-06-23 09:55:00
6:15 AM,61.5,61.5,100,30.26,5.0,North,-9999.0,-,N/A,,Clear,0,2013-06-23 10:15:00
6:35 AM,61.3,61.3,100,30.26,4.0,North,-9999.0,-,N/A,,Clear,0,2013-06-23 10:35:00
6:55 AM,61.2,61.2,100,30.27,5.0,North,-9999.0,-,N/A,,Clear,0,2013-06-23 10:55:00
7:15 AM,62.6,62.6,100,30.28,7.0,North,-9999.0,-,N/A,,Clear,0,2013-06-23 11:15:00
7:35 AM,63.9,63.9,100,30.29,10.0,North,-9999.0,-,N/A,,Clear,0,2013-06-23 11:35:00
7:55 AM,64.8,64.8,100,30.29,10.0,North,-9999.0,-,N/A,,Clear,0,2013-06-23 11:55:00
8:15 AM,65.7,65.3,99,30.30,10.0,North,-9999.0,-,N/A,,Clear,0,2013-06-23 12:15:00
8:35 AM,69.1,67.1,93,30.30,10.0,North,-9999.0,-,N/A,,Clear,0,2013-06-23 12:35:00
8:55 AM,71.4,67.1,86,30.30,10.0,North,-9999.0,-,N/A,,Clear,0,2013-06-23 12:55:00
9:15 AM,74.3,67.5,79,30.31,10.0,North,-9999.0,-,N/A,,Clear,0,2013-06-23 13:15:00
9:35 AM,74.7,67.8,79,30.31,10.0,North,-9999.0,-,N/A,,Clear,0,2013-06-23 13:35:00
9:55 AM,75.0,68.9,81,30.31,10.0,North,-9999.0,-,N/A,,Clear,0,2013-06-23 13:55:00
10:15 AM,78.4,68.4,71,30.30,10.0,North,-9999.0,-,N/A,,Clear,0,2013-06-23 14:15:00
10:35 AM,79.3,66.9,66,30.31,10.0,North,-9999.0,-,N/A,,Clear,0,2013-06-23 14:35:00
10:55 AM,80.8,67.3,63,30.31,10.0,North,-9999.0,-,N/A,,Clear,0,2013-06-23 14:55:00
11:15 AM,81.7,67.5,62,30.31,10.0,North,-9999.0,-,N/A,,Clear,0,2013-06-23 15:15:00
11:35 AM,82.6,68.0,61,30.31,10.0,North,-9999.0,-,N/A,,Clear,0,2013-06-23 15:35:00
11:55 AM,82.6,68.5,62,30.30,10.0,North,-9999.0,-,N/A,,Clear,0,2013-06-23 15:55:00
12:15 PM,82.9,69.1,63,30.30,10.0,North,-9999.0,-,N/A,,Clear,0,2013-06-23 16:15:00
12:35 PM,83.8,68.9,61,30.30,10.0,North,-9999.0,-,N/A,,Clear,0,2013-06-23 16:35:00
12:55 PM,84.2,68.5,59,30.29,10.0,North,-9999.0,-,N/A,,Clear,0,2013-06-23 16:55:00
1:15 PM,85.8,68.2,55,30.28,10.0,North,-9999.0,-,N/A,,Clear,0,2013-06-23 17:15:00
1:35 PM,85.6,66.0,52,30.27,10.0,North,-9999.0,-,N/A,,Scattered Clouds,0,2013-06-23 17:35:00
1:55 PM,85.3,62.6,46,30.26,10.0,North,-9999.0,-,N/A,,Clear,0,2013-06-23 17:55:00
2:15 PM,87.3,63.3,45,30.25,10.0,North,-9999.0,-,N/A,,Scattered Clouds,0,2013-06-23 18:15:00
2:35 PM,87.3,65.1,48,30.25,10.0,North,-9999.0,-,N/A,,Scattered Clouds,0,2013-06-23 18:35:00
2:55 PM,87.6,65.7,48,30.24,10.0,North,-9999.0,-,N/A,,Clear,0,2013-06-23 18:55:00
3:15 PM,88.3,64.2,45,30.23,10.0,North,-9999.0,-,N/A,,Clear,0,2013-06-23 19:15:00
3:35 PM,88.9,64.6,44,30.23,10.0,North,-9999.0,-,N/A,,Clear,0,2013-06-23 19:35:00
3:55 PM,87.6,63.7,45,30.22,10.0,North,-9999.0,-,N/A,,Clear,0,2013-06-23 19:55:00
4:15 PM,88.3,64.4,45,30.22,10.0,North,-9999.0,-,N/A,,Scattered Clouds,0,2013-06-23 20:15:00
4:35 PM,88.2,66.0,48,30.21,10.0,North,-9999.0,-,N/A,,Clear,0,2013-06-23 20:35:00
4:55 PM,88.7,64.6,45,30.22,10.0,North,-9999.0,-,N/A,,Scattered Clouds,0,2013-06-23 20:55:00
5:15 PM,88.3,64.8,45,30.21,10.0,North,-9999.0,-,N/A,,Clear,0,2013-06-23 21:15:00
5:35 PM,87.8,65.1,47,30.21,10.0,North,-9999.0,-,N/A,,Scattered Clouds,0,2013-06-23 21:35:00
5:55 PM,87.3,66.4,50,30.21,10.0,North,-9999.0,-,N/A,,Clear,0,2013-06-23 21:55:00
6:15 PM,85.3,70.0,60,30.20,10.0,North,-9999.0,-,N/A,,Clear,0,2013-06-23 22:15:00
6:35 PM,83.3,70.5,65,30.20,10.0,North,-9999.0,-,N/A,,Clear,0,2013-06-23 22:35:00
6:55 PM,81.7,71.8,72,30.20,10.0,North,-9999.0,-,N/A,,Clear,0,2013-06-23 22:55:00
7:15 PM,80.1,71.1,74,30.20,10.0,North,-9999.0,-,N/A,,Clear,0,2013-06-23 23:15:00
7:35 PM,77.5,70.5,79,30.20,10.0,North,-9999.0,-,N/A,,Clear,0,2013-06-23 23:35:00
7:55 PM,76.8,71.1,82,30.20,10.0,North,-9999.0,-,N/A,,Clear,0,2013-06-23 23:55:00
8:15 PM,75.7,71.4,86,30.20,10.0,North,-9999.0,-,N/A,,Clear,0,2013-06-24 00:15:00
8:35 PM,74.5,70.5,87,30.21,10.0,North,-9999.0,-,N/A,,Clear,0,2013-06-24 00:35:00
8:55 PM,73.4,69.4,87,30.21,10.0,North,-9999.0,-,N/A,,Clear,0,2013-06-24 00:55:00
9:15 PM,72.0,68.9,90,30.21,10.0,North,-9999.0,-,N/A,,Clear,0,2013-06-24 01:15:00
9:35 PM,71.2,68.5,91,30.22,10.0,North,-9999.0,-,N/A,,Clear,0,2013-06-24 01:35:00
9:55 PM,70.5,68.5,93,30.23,10.0,North,-9999.0,-,N/A,,Scattered Clouds,0,2013-06-24 01:55:00
10:15 PM,70.0,68.7,96,30.24,10.0,North,-9999.0,-,N/A,,Scattered Clouds,0,2013-06-24 02:15:00
10:35 PM,69.8,68.7,96,30.25,10.0,North,-9999.0,-,N/A,,Mostly Cloudy,0,2013-06-24 02:35:00
10:55 PM,69.6,68.4,96,30.25,10.0,North,-9999.0,-,N/A,,Mostly Cloudy,0,2013-06-24 02:55:00
11:15 PM,69.8,68.4,95,30.26,10.0,North,-9999.0,-,N/A,,Overcast,0,2013-06-24 03:15:00
11:35 PM,69.3,68.2,96,30.26,10.0,North,-9999.0,-,N/A,,Mostly Cloudy,0,2013-06-24 03:35:00
11:55 PM,69.3,68.2,96,30.26,10.0,North,-9999.0,-,N/A,,Mostly Cloudy,0,2013-06-24 03:55:00